Regional Weather Roundup
Issued by NWS

Home | Current Version | Previous Version | Graphics & Text | Print | Product List | Glossary On
Versions: 1 2 3 4 5 6 7 8 9 10 11 12 13 14 15 16 17 18 19 20 21 22 23 24 25 26 27 28 29 30 31 32 33 34 35 36 37 38 39 40 41 42 43 44 45 46 47 48 49 50
000
ASUS45 KTFX 230819
RWRMT
MONTANA HOURLY WEATHER ROUNDUP
NATIONAL WEATHER SERVICE GREAT FALLS MT
219 AM MDT SAT AUG 23 2014

NOTE: "FAIR" INDICATES FEW OR NO CLOUDS BELOW 12000 FEET WITH NO
SIGNIFICANT WEATHER AND/OR OBSTRUCTIONS TO VISIBILITY.

* THESE STATIONS ARE NOT UNDER NWS QUALITY CONTROL. THEY DO NOT
   REPORT WEATHER SUCH AS PRECIPITATION OR FOG.

MTZ001>007-043-230900-
WEST OF THE DIVIDE
CITY           SKY/WX    TMP DP  RH WIND       PRES   REMARKS
KALISPELL      CLOUDY    55  39  55 N16       30.16S
MISSOULA       LGT RAIN  55  48  77 NW7       30.11S
BUTTE          LGT RAIN  48  45  89 N6        30.10S
MULLAN PASS    CLOUDY    43  41  93 CALM      30.17S
* ESSEX        N/A       50  41  71 SE2G7      N/A
* LINCOLN      N/A       48  41  77 E6G12      N/A
* LOOKOUT PASS N/A       51  43  74 NW4        N/A
* POLSON       N/A       55  40  57 NE4G11     N/A
* RONAN APT    CLOUDY    55  43  64 N5         N/A
* SEELEY LAKE  N/A       50  47  89 SW1        N/A
* THOMP F APT  CLOUDY    46  45  96 N/A        N/A
$$

MTZ008-052>055-230900-
SOUTHWEST MONTANA
CITY           SKY/WX    TMP DP  RH WIND       PRES   REMARKS
BOZEMAN        LGT RAIN  54  52  93 CALM      30.05F
DILLON         CLOUDY    50  46  86 NE7       30.05F
W YELLOWSTONE  CLOUDY    46  45  96 CALM      30.07F
* THREE FORKS  CLOUDY    54  34  47 N5         N/A
* BOULDER HILL N/A       44  41  89 N14G22     N/A
* MONIDA PASS  N/A       44  44 100 W3         N/A
* RAYNOLDS PAS N/A       45  42  89 NW11       N/A
* WHITEHALL    N/A       51  47  86 NE10G17    N/A
* WISE RIVER   N/A       47  44  89 W5G10      N/A
$$

MTZ009>010-012-014-046-048-049-054-230900-
EAST SLOPES AND CENTRAL MONTANA
CITY           SKY/WX    TMP DP  RH WIND       PRES   REMARKS
CUT BANK       LGT RAIN  46  45  96 N21G29    30.23S VSB 3
GREAT FALLS    LGT RAIN  48  48 100 NW16G25   30.11F
HELENA         LGT RAIN  50  46  86 W9        30.12F
MALMSTROM AFB  LGT RAIN  50  48  93 NW15G23   30.12F
* CONRAD       CLOUDY    48  48 100 NW11G20    N/A
* DEARBORN     N/A       49  48  96 SE1        N/A
* EAST GLACIER N/A       42  41  96 NE13G19    N/A
* MONARCH      N/A       45  42  89 NW14       N/A
* PENDROY      N/A       45  45 100 N18G27     N/A
* SAINT MARY   N/A       43  41  93 NE4G12     N/A
* SWEET GRASS  N/A       45  45 100 NE16G24    N/A
* WHITE SULPH  N/A       47  46  96 NW10G15    N/A
$$

MTZ011-013-016-021-035-040-045-047-050-051-230900-
NORTH CENTRAL MONTANA
CITY           SKY/WX    TMP DP  RH WIND       PRES   REMARKS
HAVRE          LGT RAIN  55  54  96 NE15      30.12F
LEWISTOWN      LGT RAIN  55  52  90 N12       30.05F
* FORT BENTON  CLOUDY    55  55 100 N8        30.10F
* CHESTER      N/A       53  52  96 NE11G21    N/A
* DENTON       N/A       55  53  93 N10        N/A
* GEYSER       N/A       52  51  96 W7         N/A
* JUDITH GAP   N/A       53  52  96 NW15G22    N/A
* LOMA         N/A       56  55  96 N12G17     N/A
$$

MTZ017>020-022>027-061-062-230900-
NORTHEAST MONTANA
CITY           SKY/WX    TMP DP  RH WIND       PRES   REMARKS
GLASGOW        CLOUDY    61  54  78 E17G28    30.06F
GLENDIVE       CLOUDY    61  61 100 NE13      30.03S
JORDAN         CLOUDY    57  57 100 NE16      30.00F
SIDNEY         CLOUDY    61  59  93 NE14      30.06F
WOLF POINT     CLOUDY    61  55  81 NE17      30.07F
* BEAVER HILL  N/A       61  59  93 NE16G29    N/A
* CIRCLE       N/A       58  57  96 NE16       N/A
* LINDSAY DVD  N/A       58  58 100 NE17G29    N/A
* SACO         N/A       60  53  78 NE15G20    N/A
$$

MTZ028>042-056>058-230900-
SOUTHCENTRAL AND SOUTHEAST MONTANA
CITY           SKY/WX    TMP DP  RH WIND       PRES   REMARKS
BAKER          LGT RAIN  63  61  93 E14       30.00F
BILLINGS       FOG       61  59  93 NE6       29.95F VSB 1/2
LIVINGSTON     LGT RAIN  54  52  93 W5        30.03F
MILES CITY     FOG       63  61  93 NE8       29.95F
* LAUREL APT   CLOUDY    59  55  87 N/A        N/A
* ROUNDUP APT  CLOUDY    59  55  87 N9         N/A
* ALZADA       N/A       63  62  97 E8         N/A
* HYSHAM       N/A       60  58  93 E8         N/A
* LAME DEER    N/A       58  57  96 SE2        N/A
* REED POINT   N/A       55  54  96 SW8        N/A
* ROSCOE HILL  N/A       51  48  90 W2G7       N/A
$$

REGIONAL REPORTS...DAKOTAS
CITY           SKY/WX    TMP DP  RH WIND       PRES   REMARKS
WILLISTON      CLOUDY    61  55  81 NE15      30.10F
DICKINSON      FOG       63  61  93 E15G23    30.03F VSB 3
BEACH          LGT RAIN  59  59 100 E18G24    30.03F VSB 3
CROSBY         CLOUDY    55  55 100 NE15G21   30.17S
TIOGA          CLOUDY    55  55 100 E15G23    30.15F
WATFORD CITY   CLOUDY    59  57  93 E15G20    30.07S
BISMARCK       CLOUDY    64  61  90 NE16      30.06F
GRAND FORKS    CLOUDY    63  61  93 N9        30.06F
FARGO          CLOUDY    64  63  97 N10       30.03F
BUFFALO SD     CLOUDY    64  61  90 E13       29.92F
RAPID CITY     LGT RAIN  66  64  93 E7        29.94F
$$

REGIONAL REPORTS...WYOMING/IDAHO/WASHINGTON
CITY           SKY/WX    TMP DP  RH WIND       PRES   REMARKS
GILLETTE       RAIN      59  57  93 E10       29.96F
SHERIDAN       CLOUDY    59  57  93 N3        29.96F
CODY           CLOUDY    54  52  93 NE6       30.00F
YELLOWSTONE LA CLOUDY    45  43  93 W3        30.14S
SALMON         CLOUDY    54  48  80 CALM      30.04F
MULLAN PASS    CLOUDY    43  41  93 CALM      30.17S
SAND POINT     MOCLDY    59  43  56 N13G22    30.13R
SPOKANE        MOCLDY    61  46  58 NE7       30.09S
$$

REGIONAL REPORTS...ALBERTA
CITY           SKY/WX    TMP DP  RH WIND       PRES   REMARKS
CALGARY        MOCLDY    46  45  96 SE7       30.34R
LETHBRIDGE     LGT RAIN  46  46 100 N10       30.31F
MEDICINE HAT   LGT RAIN  48  48 100 N6        30.26S VSB 2
EDMONTON       MOCLDY    36  34  92 CALM      30.36F
WATERTON GATE  N/A       45  43  93 N5         N/A
CARDSTON       N/A       45  45 100 N8         N/A
MILK RIVER     N/A       46  45  96 N17        N/A
$$

REGIONAL REPORTS...SASKATCHEWAN
CITY           SKY/WX    TMP DP  RH WIND       PRES   REMARKS
SWIFT CURRENT  CLOUDY    54  54 100 E9        30.21S
REGINA         CLOUDY    55  52  90 NE10      30.21F
VAL MARIE      N/A       55  52  90 NE10       N/A
ASSINIBOIA     N/A       55  50  83 E10        N/A
CORONACH       N/A       57  54  90 NE12G17    N/A

$$




USA.gov is the U.S. government's official web portal to all federal, state and local government web resources and services.